Helicity
97 84 65 61 51 45 42 39 41 58 61 77 55 24 52 30 49 87 98 196 239 254 164 179 150 298 422 307 270 246 268 285 262 198 204 190 195 230 226 216 197 186 148
117 104 79 58 51 45 42 39 31 45 70 66 77 71 29 68 43 65 101 113 216 337 282 151 206 342 421 414 373 244 286 273 349 271 242 219 199 199 213 224 197 172 153
148 126 93 64 47 39 41 37 34 36 63 80 79 77 62 51 64 64 76 98 102 378 482 156 206 299 394 483 499 315 250 297 309 299 313 250 211 212 213 188 182 171 151
160 137 97 76 48 35 35 35 37 40 51 76 85 89 69 54 53 74 94 56 50 168 381 533 247 240 353 522 512 407 362 356 379 367 376 319 265 224 219 211 197 211 206
180 136 93 88 59 38 29 30 40 41 41 55 77 90 79 61 34 66 102 91 72 54 183 364 238 197 254 364 553 385 384 351 399 413 435 416 323 308 221 209 232 235 178
180 116 101 84 65 37 30 38 40 40 34 38 65 81 68 57 86 123 153 89 62 20 61 205 536 225 234 261 286 309 524 453 365 474 409 439 362 327 307 264 362 301 291
163 115 97 81 66 50 46 44 45 45 36 38 51 79 85 56 89 102 157 98 73 36 28 190 282 169 272 216 254 323 443 399 344 413 417 370 416 372 346 306 332 280 237
148 110 91 87 65 70 59 50 57 51 41 36 40 67 82 70 91 120 147 115 57 51 -88 70 203 390 237 194 187 236 357 412 404 328 260 303 367 339 321 287 219 271 304
129 97 78 87 89 103 89 64 62 56 52 36 31 47 69 85 104 132 138 96 57 60 -112 -117 129 277 171 219 186 204 286 394 300 284 260 288 375 337 406 427 378 368 306
124 97 110 110 102 97 91 84 73 56 46 44 31 42 59 72 96 117 142 78 57 29 -38 -144 23 221 378 229 263 236 203 289 389 316 262 243 230 248 202 215 312 275 256
137 134 122 129 120 109 97 82 73 71 53 38 22 31 49 60 56 95 164 111 51 12 -31 -194 -75 120 346 259 222 241 241 262 276 311 241 246 288 329 327 263 171 212 235
173 138 117 125 126 101 101 101 88 68 42 37 15 16 31 44 65 65 139 190 160 36 36 -156 -190 94 368 247 272 213 249 293 326 316 297 309 317 279 273 216 247 284 240
168 138 132 135 121 115 115 108 92 84 57 28 20 13 23 37 35 85 131 184 161 73 -27 42 -83 9 215 192 237 187 233 376 402 372 286 285 279 313 355 370 343 355 358
162 151 158 143 118 116 117 118 108 81 59 46 33 23 18 26 45 52 53 95 119 88 49 -1 -191 -102 -5 254 257 349 300 371 404 346 288 310 397 389 340 356 387 362 439
177 167 165 132 123 126 128 123 112 95 66 60 50 27 8 9 61 85 107 112 80 67 112 6 -232 -287 -60 244 254 344 276 363 325 300 347 400 395 409 357 336 376 378 409
172 171 165 162 166 144 128 122 85 51 49 51 52 37 16 18 71 105 122 173 152 135 36 10 -76 -316 -57 128 329 393 363 362 325 342 339 356 436 398 370 343 366 359 426
163 167 174 168 166 140 129 113 76 84 41 68 70 53 48 33 57 81 92 131 133 113 3 7 -17 -119 -43 176 371 414 387 341 339 338 326 380 440 449 447 405 383 367 365
173 124 151 157 157 148 131 115 95 38 14 12 68 53 73 72 65 72 83 97 34 23 7 -32 32 -102 -26 222 302 369 384 397 349 349 339 383 442 494 421 377 339 357 375
185 178 166 166 167 129 119 89 73 35 15 28 12 59 50 81 91 83 75 7 7 20 25 -42 57 53 -3 220 230 372 436 422 352 380 381 347 385 396 327 352 338 307 370
188 124 126 147 137 136 125 103 65 40 20 20 11 51 50 72 66 33 1 9 7 27 8 -26 128 143 -48 153 189 363 361 376 355 305 333 369 367 394 363 389 357 395 312
167 151 101 135 126 112 108 76 56 38 22 22 34 59 67 45 54 33 17 30 6 35 13 25 199 203 68 104 186 370 417 379 355 364 340 392 381 372 370 435 381 414 397
153 139 127 138 130 109 74 61 50 46 41 24 26 30 77 26 34 40 25 35 38 48 31 46 264 195 178 268 231 346 376 346 369 401 393 397 390 368 402 428 449 410 400
108 136 133 120 96 63 63 56 32 17 14 20 24 26 38 49 44 26 28 46 54 78 39 49 221 197 237 325 146 320 302 345 373 426 419 388 420 414 437 442 413 430 356
119 124 100 73 57 40 39 43 36 15 13 22 25 27 36 56 47 38 36 50 66 86 44 91 238 222 288 324 98 268 367 421 412 475 419 451 424 405 405 411 382 376 397
108 74 40 25 26 36 44 38 23 20 27 28 30 31 41 49 46 34 42 49 82 83 81 111 191 221 279 329 86 156 209 275 359 388 454 445 420 416 438 406 384 375 409
-4 -5 17 29 44 47 35 31 38 40 44 49 45 44 51 60 50 42 54 59 91 69 102 159 231 307 307 232 111 176 150 265 358 363 461 456 447 460 433 407 387 435 438
Wind_Speed
53 57 61 65 68 69 72 72 76 78 79 82 88 90 93 94 95 96 100 101 100 101 96 95 94 83 90 87 86 83 76 66 67 58 52 47 40 39 39 38 34 32 29
49 57 61 64 68 72 74 76 77 80 80 81 85 90 92 95 95 97 101 101 101 100 96 93 86 84 87 89 89 85 86 72 68 62 53 49 47 41 37 35 36 34 31
50 55 61 66 69 73 75 77 78 80 81 83 84 87 91 93 95 98 101 103 104 99 100 99 82 85 93 85 90 86 84 78 70 63 56 50 48 42 40 39 37 35 33
49 54 62 68 72 74 76 77 77 78 82 84 83 86 88 92 93 94 97 101 104 100 98 95 87 83 84 94 89 87 84 74 71 61 57 54 51 46 41 39 36 35 33
49 59 66 70 72 73 75 78 78 79 81 83 85 85 87 89 90 93 96 99 102 108 103 102 99 85 80 78 93 88 82 85 78 67 65 58 55 49 47 43 40 31 32
53 63 66 70 71 73 75 78 79 81 84 85 86 87 88 88 91 95 98 100 101 109 112 105 97 92 86 75 85 93 83 84 86 76 76 76 61 54 48 44 38 34 35
54 60 64 68 69 73 77 78 80 82 85 87 87 88 89 89 90 94 97 101 104 108 113 114 112 101 92 83 78 81 90 81 86 85 77 70 71 59 46 48 41 36 38
55 59 64 63 70 75 78 81 82 84 86 89 88 88 90 88 89 92 96 100 104 105 111 115 114 111 95 89 81 77 81 84 84 93 84 76 66 53 47 42 36 34 30
55 60 62 65 73 76 76 81 84 86 88 91 90 90 90 91 92 95 94 97 103 108 108 112 116 116 105 87 82 77 75 72 76 84 81 72 58 52 47 40 39 34 36
56 61 64 68 70 74 76 80 83 84 88 90 93 90 91 93 92 93 94 95 104 105 108 112 115 119 119 94 87 81 78 71 73 78 81 74 67 65 54 48 40 37 35
56 60 63 65 67 69 70 77 82 86 88 91 93 91 90 89 89 91 92 93 98 104 107 109 107 114 120 109 90 81 77 73 72 73 73 66 61 55 53 47 43 39 39
59 63 66 66 66 65 70 79 83 85 88 92 91 92 87 87 89 88 90 94 98 104 109 106 107 112 112 120 98 90 87 77 77 74 75 73 67 61 52 46 50 45 42
62 66 67 67 67 69 75 79 82 84 87 90 91 92 92 90 88 89 92 94 95 99 100 106 109 118 121 126 115 106 83 76 76 80 84 83 73 60 50 46 50 41 34
66 69 70 70 74 74 73 77 82 85 88 90 94 95 95 93 92 89 88 88 92 98 99 101 104 109 117 117 114 95 90 85 85 86 85 80 69 63 61 52 44 38 36
70 72 73 74 76 77 78 80 81 81 85 92 91 94 97 99 95 95 97 96 95 98 104 104 105 108 112 119 111 90 89 90 86 81 87 81 74 68 63 54 47 42 40
73 74 76 78 80 80 82 87 81 88 92 91 97 99 100 101 101 99 99 101 101 100 104 109 110 112 113 117 116 92 89 89 94 85 88 84 85 74 65 60 53 50 40
76 78 78 79 79 80 82 87 95 91 85 93 98 96 97 99 98 98 97 98 99 99 107 109 112 112 112 111 116 100 95 93 88 90 89 90 83 73 68 63 61 50 40
74 76 76 77 77 78 82 85 87 87 98 99 92 94 95 96 94 93 95 96 94 90 99 105 111 110 113 110 115 108 96 89 90 88 87 90 81 73 68 65 60 54 44
75 74 73 75 74 76 78 80 84 91 95 98 95 93 89 90 92 92 89 86 90 93 98 103 104 108 109 112 117 109 94 90 92 93 92 87 79 75 70 66 63 56 46
72 72 74 73 73 78 79 78 87 91 95 95 94 92 90 90 88 85 82 85 88 90 94 100 103 104 105 114 119 108 99 90 90 87 88 88 80 82 75 72 66 55 52
68 69 71 75 79 79 78 84 89 94 95 95 95 92 92 92 89 86 86 86 85 87 91 96 98 98 102 107 117 112 104 97 93 92 92 88 81 86 84 77 71 61 44
63 66 68 72 76 72 82 85 88 93 96 96 94 91 92 88 87 86 85 85 85 86 88 92 97 95 99 104 122 118 108 105 91 92 92 90 88 88 79 74 66 55 49
61 63 68 70 74 82 86 89 91 90 92 93 92 90 87 87 85 83 85 84 84 85 86 88 91 92 96 103 119 121 114 104 96 89 89 96 94 90 83 75 70 63 52
63 62 66 73 78 83 85 88 90 91 91 90 89 88 87 86 84 83 83 83 82 82 83 85 85 89 94 100 114 119 119 106 101 96 94 95 94 89 86 79 74 62 55
61 70 73 78 82 84 85 86 87 87 87 86 86 86 85 84 83 82 81 80 80 79 81 82 83 84 89 97 110 111 110 106 98 92 96 98 92 84 84 82 71 62 57
71 73 75 76 79 81 83 85 86 85 85 84 84 84 83 83 82 81 80 78 78 76 79 80 79 81 83 91 100 103 107 97 94 93 95 95 91 87 87 79 72 67 64
Wind_Direction
329 329 328 329 329 328 326 323 317 312 303 292 283 279 277 274 270 268 264 264 263 262 259 257 253 251 247 247 248 250 250 254 258 265 268 271 264 262 261 261 264 270 276
325 324 324 324 324 324 323 321 318 312 307 300 290 282 278 275 272 268 265 263 262 261 259 254 255 249 247 245 246 247 250 254 255 254 262 266 268 264 264 264 268 273 274
321 321 320 320 321 320 321 320 318 314 310 303 296 287 281 277 274 268 266 264 261 263 260 258 255 250 246 248 246 245 247 251 252 252 256 262 268 265 267 271 272 275 277
318 317 316 316 316 317 318 318 317 315 310 304 299 293 285 280 276 272 270 266 262 261 263 265 254 250 250 245 244 243 242 247 251 249 252 254 263 266 265 266 269 274 275
314 313 313 314 315 316 316 315 316 315 310 305 300 296 290 283 279 274 270 268 265 258 259 259 255 249 249 251 244 244 244 241 246 248 248 250 257 260 259 263 268 271 276
311 310 312 313 315 315 315 315 315 312 309 304 300 296 290 287 282 277 272 268 265 258 255 258 262 248 248 249 245 243 241 238 243 247 248 248 250 254 256 256 261 265 278
309 311 312 314 316 315 315 315 314 311 308 304 301 298 293 288 285 280 274 268 264 260 255 254 253 253 246 247 249 247 243 240 238 242 244 246 246 247 245 251 252 264 279
310 312 313 316 315 315 315 314 313 311 308 304 301 299 294 292 288 282 277 270 264 262 257 253 254 255 245 246 248 250 247 244 241 242 245 248 247 238 237 243 249 260 285
309 311 314 315 314 315 316 314 312 310 308 303 301 299 296 292 288 283 279 271 265 261 257 255 253 251 247 242 245 249 248 242 241 240 243 245 238 231 234 241 245 250 263
309 311 313 314 315 315 316 314 312 310 307 303 299 299 296 292 290 284 279 271 264 261 257 254 253 249 249 239 242 247 246 240 239 239 238 241 237 234 230 235 232 228 244
310 312 313 315 316 316 317 314 311 309 306 302 298 298 296 293 289 285 280 273 266 260 256 255 254 249 248 236 238 244 241 240 237 235 234 232 230 223 223 228 228 223 232
311 311 312 314 316 317 316 313 310 309 305 301 298 297 297 294 289 285 281 276 268 261 255 255 253 251 250 235 237 241 241 236 236 231 228 224 220 219 218 219 227 232 244
309 310 312 313 315 315 312 312 310 308 304 300 298 296 295 292 289 285 281 276 269 261 258 255 255 248 244 236 234 236 236 233 229 227 223 222 220 215 207 215 226 229 236
307 308 310 311 312 312 311 310 308 305 301 298 295 293 293 290 287 285 281 277 271 265 260 256 252 251 243 240 233 235 234 231 227 226 220 218 215 208 211 215 216 217 223
307 307 308 309 309 310 309 308 307 304 300 296 295 294 290 286 284 281 277 276 271 265 260 254 249 245 245 238 232 229 232 229 226 224 216 213 209 208 214 215 212 210 222
305 306 306 307 308 308 307 306 306 301 297 294 292 290 288 283 281 279 276 273 270 265 257 249 244 242 242 234 226 222 226 225 222 218 214 213 211 209 210 213 213 217 204
303 305 306 306 306 306 306 304 300 300 298 294 292 289 286 284 280 278 276 274 269 265 252 247 242 240 239 236 223 219 223 223 220 217 214 214 211 211 209 212 210 210 207
305 305 305 305 305 304 304 302 300 297 294 293 293 290 287 284 281 278 277 274 268 263 251 247 242 239 239 239 224 220 221 220 217 214 213 212 211 206 206 205 206 208 205
306 305 305 305 304 303 303 301 298 295 293 290 291 290 288 284 281 278 276 273 267 261 252 247 244 240 241 236 222 219 217 217 216 214 213 212 209 206 205 206 207 207 203
307 305 305 304 304 303 301 299 297 294 291 288 286 287 286 283 278 276 277 273 267 260 254 247 243 242 241 234 220 216 216 214 212 210 210 211 210 212 208 206 207 199 210
307 306 305 304 302 300 298 296 294 290 287 285 282 283 281 277 276 275 274 271 264 262 255 247 243 243 240 232 218 215 214 214 211 209 211 211 210 212 211 211 211 210 195
309 307 306 305 302 301 298 295 292 288 284 281 280 279 278 275 274 272 272 267 264 262 254 247 243 242 238 232 217 214 212 211 209 209 211 211 210 210 207 207 208 201 199
313 310 307 305 302 299 296 293 290 287 283 279 277 276 276 273 271 270 269 266 264 263 253 248 243 243 238 233 219 215 212 213 211 208 207 210 209 208 209 207 206 204 194
314 313 309 306 304 300 295 291 287 283 280 277 275 274 272 269 268 268 266 264 264 263 254 249 246 243 237 232 218 216 215 214 213 211 207 210 208 207 209 209 208 204 196
315 313 312 308 303 298 294 290 285 281 278 276 273 271 269 266 266 265 263 262 263 261 252 246 245 244 237 230 219 216 213 211 210 208 208 208 209 206 209 208 205 202 198
318 315 312 308 302 296 291 286 282 278 274 273 271 269 266 263 263 264 260 260 260 260 251 247 245 243 238 228 217 215 213 208 208 208 207 206 206 206 207 207 204 205 201